Showing default

OSCAR 32, 19071

Orbit data source: Space-Track

OSCAR 32, 19071 is a payload satellite owned by USN NAVAIR (US) in LEO that was launched on Tue, 26 Apr 1988 UTC via an SCOUT G-1 launch vehicle from the Air Force Western Test Range (AFWTR). Payload-class satellites include a variety of spacecraft equipped with specific instruments for various scientific and technological missions. These include communications satellites like Starlink; space stations such as the ISS; scientific satellites like the Hubble; Earth observation satellites from companies like Planet Labs, Umbra, and HawkEye 360; GPS; miniature CubeSats for education and research; and military/defense satellites.

Loading next visibility...
Identifier
19071, 1988-033B
Orbit
LEO
Country
Flag of USUS
Related business
Manufacturer
GE/East Windsor
Mission
Defense Navigation
Bus & Motor
TRANSIT 5, Unknown motor
Mass
64 kg wet, 64 kg dry
Launch date (UTC)
1988-04-26 (38 years ago)
Launch vehicle
SCOUT G-1
Launch site
Air Force Western Test Range (AFWTR)
Object type
Payload
Rocket body
Debris
Shape & HBR
Oct Cyl + 4 Pan + 1 Rod, 15.0 m
Radar Cross Section
7.565 m², Large (>1 m²)

Expand to show TLE details & history
Last TLE update: 2 days ago

TLE from 2 days ago
0 OSCAR 32
1 19071U 88033B   26171.32379538  .00000044  00000-0  74029-4 0  9991
2 19071  90.3277  22.5294 0187913   0.4788 172.8921 13.27980601847813
Epoch: 2026-06-20T07:46Z
TLE epoch observation values (Epoch: 2026-06-20T07:46:15.920Z)
Latitude
6.2925°
Longitude
177.45896°
Altitude
1,297.243 km
Speed
7.141 km/s
True Right ascension
13h 30m 15s
True Declination
6° 15' 28"
Sunlit
Object was in daylight at epoch
Visualization orbit readout
Latitude
Unknown
Longitude
Unknown
Altitude
Unknown
Speed
Unknown
Apparent Right ascension
Unknown
Apparent Declination
Unknown
Sunlit
N/A
Visualization observer readout
Local Sidereal Time
23:09:05
Azimuth
Unknown
Elevation
Unknown
Doppler factor
Unknown
Orbital elements
Apogee altitude
1,292.962 km
Perigee altitude
1,009.98 km
Semi-major axis
7,529.608 km
Eccentricity
0.01879
Inclination
90.3277°
RAAN
22.5294°
Arg. of periapsis
0.4788°
True anomaly
173.15247°
Mean anomaly
172.8921°
Eccentric anomaly
173.02289°
Mean motion
3.32189 °/min
Orbital period
108.37 mins
BSTAR
0.000074029
Loading maneuver chart data...
Computing Atmospheric mass density...
Loading historical data...
Loading historical data...
Loading historical data...
Loading historical data...
Loading historical data...
Loading historical data...
Loading historical data...

Documentation

Showing up to 5 results
|